Location: Pella
(41.4080°N, 92.9160°W)
Time: 06:15:53
(UTC-05:00)

ATLAS 5 CENTAUR R/B - Visible Passes

Search period start: 01 September 2014 00:00
Search period end: 11 September 2014 00:00
Orbit: 385 x 398 km, 35.7° (Epoch: 31 August)

Date Brightness Start Highest point End Pass type
(mag) Time Alt. Az. Time Alt. Az. Time Alt. Az.
01 Sep 3.4 05:52:54 10° SSW 05:54:56 16° SSE 05:56:58 10° ESE visible
02 Sep 3.7 04:57:08 12° SSE 04:57:08 12° SSE 04:58:18 10° SE visible
03 Sep 2.9 05:34:18 16° SSW 05:35:52 22° SSE 05:38:25 10° ESE visible
04 Sep 3.7 04:39:02 14° SE 04:39:02 14° SE 04:39:59 10° ESE visible
04 Sep 2.4 06:11:49 10° WSW 06:14:39 29° S 06:17:29 10° ESE visible
05 Sep 2.4 05:15:59 26° S 05:16:23 27° S 05:19:10 10° ESE visible
06 Sep 4.2 04:20:33 11° ESE 04:20:33 11° ESE 04:20:40 10° ESE visible
06 Sep 2.4 05:52:51 14° WSW 05:54:58 28° S 05:57:46 10° ESE visible
07 Sep 2.7 04:57:20 25° SSE 04:57:20 25° SSE 04:59:19 10° ESE visible
08 Sep 2.5 05:34:05 22° SSW 05:34:49 24° S 05:37:28 10° SE visible
09 Sep 3.9 04:38:31 12° SE 04:38:31 12° SE 04:38:54 10° SE visible
09 Sep 3.2 06:11:10 10° SW 06:12:56 14° SSW 06:14:41 10° SSE visible
10 Sep 3.2 05:15:14 16° S 05:15:14 16° S 05:16:28 10° SSE visible
